Location: Stilling
(56.0622°N, 9.9882°E)
Time: 23:56:01
(UTC+00:00)

Cosmos 2221 - Pass Details

Date: 13 July 2020
Orbit: 592 x 617 km, 82.5° (Epoch: 14 August)

Event Time Altitude Azimuth Distance (km) Brightness Sun altitude
Rises 20:55:23 0° 343° (NNW) 2,896 7.7 -6.0°
Reaches altitude 10° 20:57:42 10° 336° (NNW) 1,982 6.8 -6.2°
Maximum altitude 21:01:48 40° 267° (W) 900 3.7 -6.5°
Drops below altitude 10° 21:05:51 10° 198° (SSW) 1,953 4.8 -6.8°
Enters shadow 21:08:04 - 191° (S) 2,820 5.5 -7.0°
